DW5678 Kavala GR current weather conditions

sailwx.info

Wind from 293

Air temperature 10.0° C
Dewpoint 7.9° C

Last reported at 2014-Nov-28 21:45 UTC.
Time now 2014-Nov-28 22:49 UTC

Location: N 40°56' E 024°24'.
View on Google Maps.

See reports from other nearby stations

  
Tides and Currents Weather Stations Pressure Air Temp Water Temp Dewpoint Dewpoint Depression Visibility Wind Speed Wind Dir Waves Ship Positions
date/time (UTC)wind fromknots sea level pressurealtimeterstation pressurevisibilityair tempwater tempwave heightnotes
2014-Nov-28 21:45 293 10.0
2014-Nov-28 21:30 293 10.0
2014-Nov-28 21:15 336 10.0
2014-Nov-28 21:00 317 10.0
2014-Nov-28 20:45 317 9.4
2014-Nov-28 20:30 317 9.4
2014-Nov-28 20:15 317 9.4
2014-Nov-28 20:00 317 9.4
2014-Nov-28 19:45 317 9.4
2014-Nov-28 19:30 317 9.4
2014-Nov-28 19:15 317 9.4
2014-Nov-28 19:00 317 9.4
2014-Nov-28 18:45 317 9.4
2014-Nov-28 18:30 317 9.4
2014-Nov-28 18:15 317 9.4
2014-Nov-28 18:00 317 0 gusting 1 9.4
2014-Nov-28 17:45 318 9.4
2014-Nov-28 17:30 318 9.4
2014-Nov-28 17:15 318 9.4
2014-Nov-28 17:00 318 9.4
2014-Nov-28 16:45 318 9.4
2014-Nov-28 16:30 318 9.4
2014-Nov-28 16:15 318 9.4
2014-Nov-28 16:00 318 9.4
2014-Nov-28 15:45 318 9.4
2014-Nov-28 15:30 318 9.4
2014-Nov-28 15:15 318 9.4
2014-Nov-28 15:00 318 9.4
2014-Nov-28 14:45 318 9.4
2014-Nov-28 14:30 318 9.4
2014-Nov-28 14:15 318 9.4
2014-Nov-28 14:00 318 9.4
2014-Nov-28 13:45 318 9.4
2014-Nov-28 13:30 318 9.4
2014-Nov-28 13:15 318 9.4
2014-Nov-28 13:00 318 9.4
2014-Nov-28 12:45 318 9.4
2014-Nov-28 12:30 316 9.4
2014-Nov-28 12:15 315 9.4
2014-Nov-28 12:00 269 9.4
2014-Nov-28 11:45 277 8.9
2014-Nov-28 11:30 271 8.9
2014-Nov-28 11:15 271 8.9
2014-Nov-28 11:00 271 8.9
2014-Nov-28 10:45 271 8.9
2014-Nov-28 10:30 271 8.9
2014-Nov-28 10:15 271 8.3
2014-Nov-28 10:00 271 8.3
2014-Nov-28 09:45 271 8.3
2014-Nov-28 09:30 271 7.8
2014-Nov-28 09:15 277 0 gusting 2 8.3
2014-Nov-28 09:00 258 0 gusting 2 8.3
2014-Nov-28 08:45 034 8.3
2014-Nov-28 08:30 030 8.3
2014-Nov-28 08:15 355 7.8
2014-Nov-28 08:00 355 7.8
2014-Nov-28 07:45 355 7.8
2014-Nov-28 07:30 355 7.8
2014-Nov-28 07:15 042 7.8
2014-Nov-28 07:00 042 7.8
2014-Nov-28 06:45 038 7.8
2014-Nov-28 05:45 022 7.8
2014-Nov-28 05:30 022 7.8
2014-Nov-28 05:15 022 7.8
2014-Nov-28 05:00 022 7.8
2014-Nov-28 04:45 022 7.2
2014-Nov-28 04:30 022 7.2
2014-Nov-28 04:15 336 7.2
2014-Nov-28 04:00 336 7.2
2014-Nov-28 03:45 336 7.2
2014-Nov-28 03:30 336 7.2
2014-Nov-28 03:15 336 7.2
2014-Nov-28 03:00 336 7.2
2014-Nov-28 02:45 336 6.7
2014-Nov-28 02:30 336 6.7
2014-Nov-28 02:15 336 6.7
2014-Nov-28 02:00 336 7.2
2014-Nov-28 01:45 336 7.2
2014-Nov-28 01:30 336 7.2
2014-Nov-28 01:15 044 7.2
2014-Nov-28 01:00 044 7.2
2014-Nov-28 00:45 044 7.2
2014-Nov-28 00:30 044 7.2
2014-Nov-28 00:15 044 7.2
2014-Nov-28 00:00 044 6.7
2014-Nov-27 23:45 044 6.7
2014-Nov-27 23:30 044 6.7
2014-Nov-27 23:15 044 6.7
2014-Nov-27 23:00 044 6.7
2014-Nov-27 22:45 044 6.7
2014-Nov-27 22:30 044 6.7
2014-Nov-27 22:15 044 6.7
2014-Nov-27 22:00 044 6.7
2014-Nov-27 21:45 044 0 gusting 2 6.7
2014-Nov-27 21:30 039 6.7
2014-Nov-27 21:15 037 0 gusting 2 6.7
2014-Nov-27 21:00 038 6.7
2014-Nov-27 20:45 031 6.7
2014-Nov-27 20:30 034 6.7
2014-Nov-27 20:15 034 6.7
2014-Nov-27 20:00 034 6.7
2014-Nov-27 19:45 037 6.7
2014-Nov-27 19:30 033 6.7
2014-Nov-27 19:15 043 6.7
2014-Nov-27 19:00 036 0 gusting 2 6.7
2014-Nov-27 18:45 035 6.7
2014-Nov-27 18:30 041 6.7
2014-Nov-27 18:15 041 0 gusting 2 6.7
2014-Nov-27 18:00 042 0 gusting 2 6.7
2014-Nov-27 17:45 046 6.1
2014-Nov-27 17:30 034 6.1
2014-Nov-27 17:15 034 0 gusting 2 6.1
2014-Nov-27 17:00 048 6.1
2014-Nov-27 16:45 037 6.1
2014-Nov-27 16:30 028 1 gusting 2 6.1
2014-Nov-27 16:15 051 0 gusting 5 6.1
2014-Nov-27 16:00 036 2 gusting 4 6.1
2014-Nov-27 15:45 046 0 gusting 2 6.1
2014-Nov-27 15:30 047 6.1
2014-Nov-27 15:15 029 0 gusting 2 6.1
2014-Nov-27 15:00 044 6.1
2014-Nov-27 14:45 041 0 gusting 4 6.1
2014-Nov-27 14:30 048 1 gusting 2 6.1
2014-Nov-27 14:15 046 0 gusting 2 6.1
2014-Nov-27 14:00 047 0 gusting 2 6.1
2014-Nov-27 13:45 045 0 gusting 2 6.1
2014-Nov-27 13:30 054 6.1
2014-Nov-27 13:15 032 6.1
2014-Nov-27 13:00 037 0 gusting 2 6.1
2014-Nov-27 12:45 045 0 gusting 4 6.1
2014-Nov-27 12:30 047 6.1
2014-Nov-27 12:15 030 0 gusting 2 6.7
2014-Nov-27 12:00 053 0 gusting 2 6.7
2014-Nov-27 11:45 055 6.1
2014-Nov-27 11:30 038 0 gusting 2 6.1
2014-Nov-27 11:15 051 6.1
2014-Nov-27 11:00 048 0 gusting 4 6.1
2014-Nov-27 10:45 044 6.1
2014-Nov-27 10:30 058 0 gusting 2 6.1
2014-Nov-27 10:15 050 6.1
2014-Nov-27 10:00 036 0 gusting 2 6.1
2014-Nov-27 09:45 054 6.1
2014-Nov-27 09:30 032 0 gusting 2 5.6
2014-Nov-27 09:15 040 0 gusting 2 5.6
2014-Nov-27 09:00 046 0 gusting 1 5.6
2014-Nov-27 08:45 049 0 gusting 2 5.6
2014-Nov-27 08:30 056 1 gusting 4 5.6
2014-Nov-27 08:15 055 1 gusting 6 5.6
2014-Nov-27 08:00 033 1 gusting 6 5.0
2014-Nov-27 07:45 043 0 gusting 5 5.0
2014-Nov-27 07:30 032 1 gusting 4 5.0
2014-Nov-27 07:15 032 1 gusting 5 5.0
2014-Nov-27 07:00 057 0 gusting 6 5.0
2014-Nov-27 06:45 043 1 gusting 5 5.0
2014-Nov-27 06:30 051 1 gusting 4 5.0
2014-Nov-27 06:15 057 0 gusting 4 5.0
2014-Nov-27 06:00 044 5.0
2014-Nov-27 05:45 008 0 gusting 6 5.0
2014-Nov-27 05:30 015 1 gusting 5 5.0
2014-Nov-27 05:15 025 2 gusting 6 4.4
2014-Nov-27 05:00 029 1 gusting 5 4.4
2014-Nov-27 04:45 041 1 gusting 5 4.4
2014-Nov-27 04:30 031 0 gusting 5 4.4
2014-Nov-27 04:15 041 0 gusting 2 4.4
2014-Nov-27 04:00 050 0 gusting 2 4.4
2014-Nov-27 03:45 025 1 gusting 4 4.4
2014-Nov-27 03:30 024 2 gusting 4 4.4
2014-Nov-27 03:15 030 0 gusting 4 4.4
2014-Nov-27 03:00 031 0 gusting 2 4.4
2014-Nov-27 02:45 056 0 gusting 4 4.4
2014-Nov-27 02:30 052 0 gusting 4 4.4
2014-Nov-27 02:15 035 1 gusting 2 4.4
2014-Nov-27 02:00 044 0 gusting 2 4.4
2014-Nov-27 01:45 051 0 gusting 5 3.9
2014-Nov-27 01:30 027 1 gusting 6 3.9
2014-Nov-27 01:15 061 0 gusting 5 3.9
2014-Nov-27 01:00 049 1 gusting 6 3.9
2014-Nov-27 00:45 024 0 gusting 6 3.9
2014-Nov-27 00:30 025 2 gusting 6 3.9
2014-Nov-27 00:15 062 2 gusting 7 3.9
2014-Nov-27 00:00 043 3 gusting 7 3.9
2014-Nov-26 23:45 033 5 gusting 8 3.3
2014-Nov-26 23:30 053 4 gusting 7 3.3
2014-Nov-26 23:15 032 2 gusting 6 2.8
2014-Nov-26 23:00 028 2 gusting 6 2.8
2014-Nov-26 22:45 031 2 gusting 6 2.8
2014-Nov-26 22:30 027 5 gusting 8 2.8
2014-Nov-26 22:15 051 3 gusting 6 2.8
2014-Nov-26 22:00 042 1 gusting 6 3.3